When you browse on this site, cookies collect data to enhance your experience and personalize the content and advertising you see.
Visit our Privacy Policy to learn more. By continuing to use the site, you agree to this use of cookies and data.
  • In Spain
  • List of Countries
  • For 7 days
  • Water Temperature
  • Satellite Maps
  • Weather Map
  • Weather Widgets
  • user-avatar
    Login

    Hourly Weather Caltenco

    Today, 17 February, Sunday

    Time Temperature Precipitation Wind Pressure Humidity
    00:00 +16°C° 0 mm 1 mps 596 mmHg 59%
    01:00 +16°C° 0 mm 1 mps 596 mmHg 63%
    02:00 +14°C° 0 mm 0 mps 595 mmHg 67%
    03:00 +13°C° 0 mm 0 mps 595 mmHg 70%
    04:00 +13°C° 0 mm 0 mps 595 mmHg 73%
    05:00 +12°C° 0 mm 0 mps 595 mmHg 75%
    06:00 +14°C° 0 mm 0 mps 596 mmHg 68%
    07:00 +18°C° 0 mm 1 mps 597 mmHg 61%
    08:00 +20°C° 0 mm 1 mps 598 mmHg 54%
    09:00 +22°C° 0 mm 1 mps 599 mmHg 47%
    10:00 +24°C° 0 mm 2 mps 599 mmHg 39%
    11:00 +26°C° 0 mm 3 mps 600 mmHg 32%
    12:00 +27°C° 0 mm 3 mps 600 mmHg 29%
    13:00 +27°C° 0 mm 4 mps 599 mmHg 26%
    14:00 +28°C° 0 mm 4 mps 599 mmHg 24%
    15:00 +27°C° 0 mm 4 mps 599 mmHg 25%
    16:00 +27°C° 0 mm 4 mps 599 mmHg 26%
    17:00 +26°C° 0 mm 4 mps 598 mmHg 27%
    18:00 +24°C° 0 mm 3 mps 598 mmHg 32%
    19:00 +20°C° 0 mm 2 mps 598 mmHg 37%
    20:00 +19°C° 0 mm 1 mps 598 mmHg 42%
    21:00 +19°C° 0 mm 1 mps 598 mmHg 44%
    22:00 +16°C° 0 mm 0 mps 598 mmHg 45%
    23:00 +15°C° 0 mm 0 mps 598 mmHg 47%

    Tomorrow, 18 February, Monday

    Time Temperature Precipitation Wind Pressure Humidity
    00:00 +15°C° 0 mm 0 mps 597 mmHg 49%
    01:00 +14°C° 0 mm 0 mps 597 mmHg 51%
    02:00 +14°C° 0 mm 0 mps 597 mmHg 54%
    03:00 +13°C° 0 mm 0 mps 596 mmHg 56%
    04:00 +13°C° 0 mm 0 mps 596 mmHg 58%
    05:00 +12°C° 0 mm 0 mps 596 mmHg 59%
    06:00 +15°C° 0 mm 0 mps 598 mmHg 53%
    07:00 +17°C° 0 mm 0 mps 599 mmHg 46%
    08:00 +19°C° 0 mm 0 mps 601 mmHg 39%
    09:00 +23°C° 0 mm 1 mps 601 mmHg 35%
    10:00 +25°C° 0 mm 3 mps 602 mmHg 31%
    11:00 +27°C° 0 mm 4 mps 602 mmHg 27%
    12:00 +27°C° 0 mm 5 mps 602 mmHg 26%
    13:00 +28°C° 0 mm 5 mps 601 mmHg 25%
    14:00 +28°C° 0 mm 6 mps 601 mmHg 24%
    15:00 +27°C° 0 mm 6 mps 600 mmHg 27%
    16:00 +26°C° 0 mm 5 mps 600 mmHg 30%
    17:00 +25°C° 0 mm 5 mps 599 mmHg 33%
    18:00 +22°C° 0.2 mm 3 mps 599 mmHg 38%
    19:00 +20°C° 0.2 mm 2 mps 599 mmHg 43%
    20:00 +17°C° 0.2 mm 0 mps 599 mmHg 49%
    21:00 +19°C° 0 mm 1 mps 599 mmHg 51%
    22:00 +18°C° 0 mm 1 mps 599 mmHg 54%
    23:00 +18°C° 0 mm 1 mps 598 mmHg 56%

    Day after tomorrow, 19 February, Tuesday

    Time Temperature Precipitation Wind Pressure Humidity
    00:00 +16°C° 0 mm 1 mps 598 mmHg 57%
    01:00 +15°C° 0 mm 1 mps 597 mmHg 58%
    02:00 +14°C° 0 mm 1 mps 596 mmHg 59%
    03:00 +14°C° 0 mm 1 mps 596 mmHg 59%
    04:00 +12°C° 0 mm 0 mps 596 mmHg 60%
    05:00 +12°C° 0 mm 0 mps 596 mmHg 60%
    06:00 +14°C° 0 mm 0 mps 597 mmHg 56%
    07:00 +16°C° 0 mm 1 mps 598 mmHg 51%
    08:00 +19°C° 0 mm 1 mps 599 mmHg 47%
    09:00 +20°C° 0 mm 2 mps 600 mmHg 42%
    10:00 +22°C° 0 mm 3 mps 600 mmHg 36%
    11:00 +25°C° 0 mm 5 mps 601 mmHg 31%
    12:00 +25°C° 0 mm 5 mps 600 mmHg 28%
    13:00 +26°C° 0 mm 6 mps 599 mmHg 24%
    14:00 +26°C° 0 mm 7 mps 599 mmHg 21%
    15:00 +24°C° 0 mm 6 mps 598 mmHg 22%
    16:00 +23°C° 0 mm 6 mps 598 mmHg 24%
    17:00 +22°C° 0 mm 5 mps 597 mmHg 25%
    18:00 +20°C° 0 mm 4 mps 597 mmHg 28%
    19:00 +18°C° 0 mm 2 mps 597 mmHg 31%
    20:00 +16°C° 0 mm 1 mps 597 mmHg 35%
    21:00 +16°C° 0 mm 1 mps 596 mmHg 36%
    22:00 +15°C° 0 mm 1 mps 596 mmHg 37%
    23:00 +14°C° 0 mm 1 mps 596 mmHg 38%

    20 February, Wednesday

    Time Temperature Precipitation Wind Pressure Humidity
    00:00 +14°C° 0 mm 1 mps 595 mmHg 41%
    01:00 +13°C° 0 mm 1 mps 595 mmHg 44%
    02:00 +12°C° 0 mm 1 mps 594 mmHg 47%
    03:00 +12°C° 0 mm 1 mps 594 mmHg 48%
    04:00 +11°C° 0 mm 1 mps 594 mmHg 50%
    05:00 +11°C° 0 mm 1 mps 593 mmHg 51%
    06:00 +13°C° 0 mm 1 mps 595 mmHg 46%
    07:00 +15°C° 0 mm 1 mps 596 mmHg 41%
    08:00 +18°C° 0 mm 1 mps 597 mmHg 35%
    09:00 +19°C° 0 mm 2 mps 598 mmHg 32%
    10:00 +21°C° 0 mm 3 mps 598 mmHg 28%
    11:00 +23°C° 0 mm 4 mps 598 mmHg 24%
    12:00 +23°C° 0 mm 5 mps 598 mmHg 23%
    13:00 +24°C° 0 mm 6 mps 597 mmHg 21%
    14:00 +24°C° 0 mm 6 mps 597 mmHg 20%
    15:00 +23°C° 0 mm 6 mps 597 mmHg 21%
    16:00 +22°C° 0 mm 6 mps 596 mmHg 23%
    17:00 +22°C° 0 mm 5 mps 596 mmHg 24%
    18:00 +19°C° 0 mm 4 mps 596 mmHg 27%
    19:00 +17°C° 0 mm 2 mps 596 mmHg 30%
    20:00 +15°C° 0 mm 1 mps 595 mmHg 33%
    21:00 +15°C° 0 mm 1 mps 595 mmHg 34%
    22:00 +14°C° 0 mm 1 mps 595 mmHg 34%
    23:00 +14°C° 0 mm 1 mps 595 mmHg 34%

    21 February, Thursday

    Time Temperature Precipitation Wind Pressure Humidity
    00:00 +13°C° 0 mm 1 mps 594 mmHg 35%
    01:00 +12°C° 0 mm 1 mps 594 mmHg 37%
    02:00 +11°C° 0 mm 0 mps 593 mmHg 39%
    03:00 +11°C° 0 mm 1 mps 594 mmHg 40%
    04:00 +11°C° 0 mm 1 mps 594 mmHg 40%
    05:00 +10°C° 0 mm 1 mps 594 mmHg 41%
    06:00 +13°C° 0 mm 1 mps 595 mmHg 37%
    07:00 +15°C° 0 mm 1 mps 596 mmHg 32%
    08:00 +18°C° 0 mm 1 mps 598 mmHg 28%
    09:00 +20°C° 0 mm 1 mps 598 mmHg 25%
    10:00 +21°C° 0 mm 2 mps 599 mmHg 22%
    11:00 +24°C° 0 mm 3 mps 599 mmHg 19%
    12:00 +23°C° 0 mm 4 mps 599 mmHg 18%
    13:00 +25°C° 0 mm 5 mps 598 mmHg 18%
    14:00 +26°C° 0 mm 5 mps 598 mmHg 17%
    15:00 +25°C° 0 mm 5 mps 598 mmHg 18%
    16:00 +23°C° 0 mm 5 mps 597 mmHg 20%
    17:00 +22°C° 0 mm 5 mps 597 mmHg 21%
    18:00 +20°C° 0 mm 4 mps 597 mmHg 25%
    19:00 +18°C° 0 mm 2 mps 596 mmHg 29%
    20:00 +16°C° 0 mm 1 mps 596 mmHg 33%
    21:00 +15°C° 0 mm 1 mps 596 mmHg 35%
    22:00 +15°C° 0 mm 1 mps 596 mmHg 37%
    23:00 +14°C° 0 mm 1 mps 596 mmHg 39%

    22 February, Friday

    Time Temperature Precipitation Wind Pressure Humidity
    00:00 +14°C° 0 mm 1 mps 595 mmHg 40%
    01:00 +13°C° 0 mm 1 mps 595 mmHg 41%
    02:00 +12°C° 0 mm 1 mps 595 mmHg 43%
    03:00 +12°C° 0 mm 1 mps 595 mmHg 43%
    04:00 +11°C° 0 mm 1 mps 595 mmHg 43%
    05:00 +10°C° 0 mm 0 mps 595 mmHg 44%
    06:00 +12°C° 0 mm 0 mps 596 mmHg 37%
    07:00 +15°C° 0 mm 0 mps 598 mmHg 30%
    08:00 +18°C° 0 mm 0 mps 599 mmHg 24%
    09:00 +21°C° 0 mm 1 mps 600 mmHg 21%
    10:00 +23°C° 0 mm 2 mps 600 mmHg 18%
    11:00 +25°C° 0 mm 3 mps 601 mmHg 15%
    12:00 +26°C° 0 mm 4 mps 600 mmHg 15%
    13:00 +27°C° 0 mm 4 mps 600 mmHg 14%
    14:00 +27°C° 0 mm 5 mps 600 mmHg 14%
    15:00 +26°C° 0 mm 5 mps 599 mmHg 17%
    16:00 +25°C° 0 mm 5 mps 599 mmHg 20%
    17:00 +23°C° 0 mm 5 mps 599 mmHg 22%
    18:00 +21°C° 0 mm 3 mps 598 mmHg 27%
    19:00 +19°C° 0 mm 2 mps 598 mmHg 31%
    20:00 +18°C° 0 mm 1 mps 598 mmHg 36%
    21:00 +16°C° 0 mm 1 mps 598 mmHg 39%
    22:00 +16°C° 0 mm 1 mps 597 mmHg 43%
    23:00 +15°C° 0 mm 1 mps 597 mmHg 46%
    Show more